﻿_id,日時,10分間移動積算雨量(mm),1時間移動積算雨量(mm),日雨量(mm),累計雨量(mm)
1,2021-06-14T00:00:00,0,0,13.5,13.5
2,2021-06-14T00:01:00,0,0,0,13.5
3,2021-06-14T00:02:00,0,0,0,13.5
4,2021-06-14T00:03:00,0,0,0,13.5
5,2021-06-14T00:04:00,0,0,0,13.5
6,2021-06-14T00:05:00,0.5,0.5,0.5,14
7,2021-06-14T00:06:00,0.5,0.5,0.5,14
8,2021-06-14T00:07:00,0.5,0.5,0.5,14
9,2021-06-14T00:08:00,0.5,0.5,0.5,14
10,2021-06-14T00:09:00,0.5,0.5,0.5,14
11,2021-06-14T00:10:00,0.5,0.5,0.5,14
12,2021-06-14T00:11:00,0.5,0.5,0.5,14
13,2021-06-14T00:12:00,0.5,0.5,0.5,14
14,2021-06-14T00:13:00,0.5,0.5,0.5,14
15,2021-06-14T00:14:00,1,1,1,14.5
16,2021-06-14T00:15:00,0.5,1,1,14.5
17,2021-06-14T00:16:00,0.5,1,1,14.5
18,2021-06-14T00:17:00,0.5,1,1,14.5
19,2021-06-14T00:18:00,0.5,1,1,14.5
20,2021-06-14T00:19:00,0.5,1,1,14.5
21,2021-06-14T00:20:00,0.5,1,1,14.5
22,2021-06-14T00:21:00,1,1.5,1.5,15
23,2021-06-14T00:22:00,1,1.5,1.5,15
24,2021-06-14T00:23:00,1,1.5,1.5,15
25,2021-06-14T00:24:00,0.5,1.5,1.5,15
26,2021-06-14T00:25:00,0.5,1.5,1.5,15
27,2021-06-14T00:26:00,0.5,1.5,1.5,15
28,2021-06-14T00:27:00,1,2,2,15.5
29,2021-06-14T00:28:00,1,2,2,15.5
30,2021-06-14T00:29:00,1,2,2,15.5
31,2021-06-14T00:30:00,1,2,2,15.5
32,2021-06-14T00:31:00,0.5,2,2,15.5
33,2021-06-14T00:32:00,1,2.5,2.5,16
34,2021-06-14T00:33:00,1,2.5,2.5,16
35,2021-06-14T00:34:00,1,2.5,2.5,16
36,2021-06-14T00:35:00,1.5,3,3,16.5
37,2021-06-14T00:36:00,1.5,3,3,16.5
38,2021-06-14T00:37:00,1,3,3,16.5
39,2021-06-14T00:38:00,1.5,3.5,3.5,17
40,2021-06-14T00:39:00,1.5,3.5,3.5,17
41,2021-06-14T00:40:00,1.5,3.5,3.5,17
42,2021-06-14T00:41:00,2,4,4,17.5
43,2021-06-14T00:42:00,1.5,4,4,17.5
44,2021-06-14T00:43:00,1.5,4,4,17.5
45,2021-06-14T00:44:00,1.5,4,4,17.5
46,2021-06-14T00:45:00,1,4,4,17.5
47,2021-06-14T00:46:00,1.5,4.5,4.5,18
48,2021-06-14T00:47:00,1.5,4.5,4.5,18
49,2021-06-14T00:48:00,1,4.5,4.5,18
50,2021-06-14T00:49:00,1,4.5,4.5,18
51,2021-06-14T00:50:00,1,4.5,4.5,18
52,2021-06-14T00:51:00,0.5,4.5,4.5,18
53,2021-06-14T00:52:00,0.5,4.5,4.5,18
54,2021-06-14T00:53:00,0.5,4.5,4.5,18
55,2021-06-14T00:54:00,0.5,4.5,4.5,18
56,2021-06-14T00:55:00,0.5,4.5,4.5,18
57,2021-06-14T00:56:00,0,4.5,4.5,18
58,2021-06-14T00:57:00,0.5,5,5,18.5
59,2021-06-14T00:58:00,0.5,5,5,18.5
60,2021-06-14T00:59:00,0.5,5,5,18.5
61,2021-06-14T01:00:00,0.5,5,5,18.5
62,2021-06-14T01:01:00,0.5,5,5,18.5
63,2021-06-14T01:02:00,0.5,5,5,18.5
64,2021-06-14T01:03:00,0.5,5,5,18.5
65,2021-06-14T01:04:00,1,5.5,5.5,19
66,2021-06-14T01:05:00,1,5,5.5,19
67,2021-06-14T01:06:00,1,5,5.5,19
68,2021-06-14T01:07:00,0.5,5,5.5,19
69,2021-06-14T01:08:00,0.5,5,5.5,19
70,2021-06-14T01:09:00,0.5,5,5.5,19
71,2021-06-14T01:10:00,0.5,5,5.5,19
72,2021-06-14T01:11:00,0.5,5,5.5,19
73,2021-06-14T01:12:00,1,5.5,6,19.5
74,2021-06-14T01:13:00,1,5.5,6,19.5
75,2021-06-14T01:14:00,0.5,5,6,19.5
76,2021-06-14T01:15:00,0.5,5,6,19.5
77,2021-06-14T01:16:00,0.5,5,6,19.5
78,2021-06-14T01:17:00,0.5,5,6,19.5
79,2021-06-14T01:18:00,0.5,5,6,19.5
80,2021-06-14T01:19:00,0.5,5,6,19.5
81,2021-06-14T01:20:00,0.5,5,6,19.5
82,2021-06-14T01:21:00,0.5,4.5,6,19.5
83,2021-06-14T01:22:00,0,4.5,6,19.5
84,2021-06-14T01:23:00,0,4.5,6,19.5
85,2021-06-14T01:24:00,0,4.5,6,19.5
86,2021-06-14T01:25:00,0,4.5,6,19.5
87,2021-06-14T01:26:00,0,4.5,6,19.5
88,2021-06-14T01:27:00,0,4,6,19.5
89,2021-06-14T01:28:00,0,4,6,19.5
90,2021-06-14T01:29:00,0,4,6,19.5
91,2021-06-14T01:30:00,0,4,6,19.5
92,2021-06-14T01:31:00,0,4,6,19.5
93,2021-06-14T01:32:00,0,3.5,6,19.5
94,2021-06-14T01:33:00,0,3.5,6,19.5
95,2021-06-14T01:34:00,0,3.5,6,19.5
96,2021-06-14T01:35:00,0,3,6,19.5
97,2021-06-14T01:36:00,0,3,6,19.5
98,2021-06-14T01:37:00,0,3,6,19.5
99,2021-06-14T01:38:00,0,2.5,6,19.5
100,2021-06-14T01:39:00,0,2.5,6,19.5
101,2021-06-14T01:40:00,0,2.5,6,19.5
102,2021-06-14T01:41:00,0,2,6,19.5
103,2021-06-14T01:42:00,0,2,6,19.5
104,2021-06-14T01:43:00,0,2,6,19.5
105,2021-06-14T01:44:00,0,2,6,19.5
106,2021-06-14T01:45:00,0,2,6,19.5
107,2021-06-14T01:46:00,0,1.5,6,19.5
108,2021-06-14T01:47:00,0,1.5,6,19.5
109,2021-06-14T01:48:00,0,1.5,6,19.5
110,2021-06-14T01:49:00,0,1.5,6,19.5
111,2021-06-14T01:50:00,0,1.5,6,19.5
112,2021-06-14T01:51:00,0,1.5,6,19.5
113,2021-06-14T01:52:00,0,1.5,6,19.5
114,2021-06-14T01:53:00,0,1.5,6,19.5
115,2021-06-14T01:54:00,0,1.5,6,19.5
116,2021-06-14T01:55:00,0,1.5,6,19.5
117,2021-06-14T01:56:00,0,1.5,6,19.5
118,2021-06-14T01:57:00,0,1,6,19.5
119,2021-06-14T01:58:00,0,1,6,19.5
120,2021-06-14T01:59:00,0,1,6,19.5
121,2021-06-14T02:00:00,0,1,6,19.5
122,2021-06-14T02:01:00,0,1,6,19.5
123,2021-06-14T02:02:00,0,1,6,19.5
124,2021-06-14T02:03:00,0,1,6,19.5
125,2021-06-14T02:04:00,0,0.5,6,19.5
126,2021-06-14T02:05:00,0,0.5,6,19.5
127,2021-06-14T02:06:00,0,0.5,6,19.5
128,2021-06-14T02:07:00,0,0.5,6,19.5
129,2021-06-14T02:08:00,0,0.5,6,19.5
130,2021-06-14T02:09:00,0,0.5,6,19.5
131,2021-06-14T02:10:00,0,0.5,6,19.5
132,2021-06-14T02:11:00,0,0.5,6,19.5
133,2021-06-14T02:12:00,0,0,6,19.5
134,2021-06-14T02:13:00,0,0,6,19.5
135,2021-06-14T02:14:00,0,0,6,19.5
136,2021-06-14T02:15:00,0,0,6,19.5
137,2021-06-14T02:16:00,0,0,6,19.5
138,2021-06-14T02:17:00,0,0,6,19.5
139,2021-06-14T02:18:00,0,0,6,19.5
140,2021-06-14T02:19:00,0,0,6,19.5
141,2021-06-14T02:20:00,0,0,6,19.5
142,2021-06-14T02:21:00,0,0,6,19.5
143,2021-06-14T02:22:00,0,0,6,19.5
144,2021-06-14T02:23:00,0,0,6,19.5
145,2021-06-14T02:24:00,0,0,6,19.5
146,2021-06-14T02:25:00,0,0,6,19.5
147,2021-06-14T02:26:00,0,0,6,19.5
148,2021-06-14T02:27:00,0,0,6,19.5
149,2021-06-14T02:28:00,0,0,6,19.5
150,2021-06-14T02:29:00,0,0,6,19.5
151,2021-06-14T02:30:00,0,0,6,19.5
152,2021-06-14T02:31:00,0,0,6,19.5
153,2021-06-14T02:32:00,0,0,6,19.5
154,2021-06-14T02:33:00,0,0,6,19.5
155,2021-06-14T02:34:00,0,0,6,19.5
156,2021-06-14T02:35:00,0,0,6,19.5
157,2021-06-14T02:36:00,0,0,6,19.5
158,2021-06-14T02:37:00,0,0,6,19.5
159,2021-06-14T02:38:00,0,0,6,19.5
160,2021-06-14T02:39:00,0,0,6,19.5
161,2021-06-14T02:40:00,0,0,6,19.5
162,2021-06-14T02:41:00,0,0,6,19.5
163,2021-06-14T02:42:00,0,0,6,19.5
164,2021-06-14T02:43:00,0,0,6,19.5
165,2021-06-14T02:44:00,0,0,6,19.5
166,2021-06-14T02:45:00,0,0,6,19.5
167,2021-06-14T02:46:00,0,0,6,19.5
168,2021-06-14T02:47:00,0,0,6,19.5
169,2021-06-14T02:48:00,0,0,6,19.5
170,2021-06-14T02:49:00,0,0,6,19.5
171,2021-06-14T02:50:00,0,0,6,19.5
172,2021-06-14T02:51:00,0,0,6,19.5
173,2021-06-14T02:52:00,0,0,6,19.5
174,2021-06-14T02:53:00,0,0,6,19.5
175,2021-06-14T02:54:00,0,0,6,19.5
176,2021-06-14T02:55:00,0,0,6,19.5
177,2021-06-14T02:56:00,0,0,6,19.5
178,2021-06-14T02:57:00,0,0,6,19.5
179,2021-06-14T02:58:00,0,0,6,19.5
180,2021-06-14T02:59:00,0,0,6,19.5
181,2021-06-14T03:00:00,0,0,6,19.5
182,2021-06-14T03:01:00,0,0,6,19.5
183,2021-06-14T03:02:00,0,0,6,19.5
184,2021-06-14T03:03:00,0,0,6,19.5
185,2021-06-14T03:04:00,0,0,6,19.5
186,2021-06-14T03:05:00,0,0,6,19.5
187,2021-06-14T03:06:00,0,0,6,19.5
188,2021-06-14T03:07:00,0,0,6,19.5
189,2021-06-14T03:08:00,0,0,6,19.5
190,2021-06-14T03:09:00,0,0,6,19.5
191,2021-06-14T03:10:00,0,0,6,19.5
192,2021-06-14T03:11:00,0,0,6,19.5
193,2021-06-14T03:12:00,0,0,6,19.5
194,2021-06-14T03:13:00,0,0,6,19.5
195,2021-06-14T03:14:00,0,0,6,19.5
196,2021-06-14T03:15:00,0,0,6,19.5
197,2021-06-14T03:16:00,0,0,6,19.5
198,2021-06-14T03:17:00,0,0,6,19.5
199,2021-06-14T03:18:00,0,0,6,19.5
200,2021-06-14T03:19:00,0,0,6,19.5
201,2021-06-14T03:20:00,0,0,6,19.5
202,2021-06-14T03:21:00,0,0,6,19.5
203,2021-06-14T03:22:00,0,0,6,19.5
204,2021-06-14T03:23:00,0,0,6,19.5
205,2021-06-14T03:24:00,0,0,6,19.5
206,2021-06-14T03:25:00,0,0,6,19.5
207,2021-06-14T03:26:00,0,0,6,19.5
208,2021-06-14T03:27:00,0,0,6,19.5
209,2021-06-14T03:28:00,0,0,6,19.5
210,2021-06-14T03:29:00,0,0,6,19.5
211,2021-06-14T03:30:00,0,0,6,19.5
212,2021-06-14T03:31:00,0,0,6,19.5
213,2021-06-14T03:32:00,0,0,6,19.5
214,2021-06-14T03:33:00,0,0,6,19.5
215,2021-06-14T03:34:00,0,0,6,19.5
216,2021-06-14T03:35:00,0,0,6,19.5
217,2021-06-14T03:36:00,0,0,6,19.5
218,2021-06-14T03:37:00,0,0,6,19.5
219,2021-06-14T03:38:00,0,0,6,19.5
220,2021-06-14T03:39:00,0,0,6,19.5
221,2021-06-14T03:40:00,0,0,6,19.5
222,2021-06-14T03:41:00,0,0,6,19.5
223,2021-06-14T03:42:00,0,0,6,19.5
224,2021-06-14T03:43:00,0,0,6,19.5
225,2021-06-14T03:44:00,0,0,6,19.5
226,2021-06-14T03:45:00,0,0,6,19.5
227,2021-06-14T03:46:00,0,0,6,19.5
228,2021-06-14T03:47:00,0,0,6,19.5
229,2021-06-14T03:48:00,0,0,6,19.5
230,2021-06-14T03:49:00,0,0,6,19.5
231,2021-06-14T03:50:00,0,0,6,19.5
232,2021-06-14T03:51:00,0,0,6,19.5
233,2021-06-14T03:52:00,0,0,6,19.5
234,2021-06-14T03:53:00,0,0,6,19.5
235,2021-06-14T03:54:00,0,0,6,19.5
236,2021-06-14T03:55:00,0,0,6,19.5
237,2021-06-14T03:56:00,0,0,6,19.5
238,2021-06-14T03:57:00,0,0,6,19.5
239,2021-06-14T03:58:00,0,0,6,19.5
240,2021-06-14T03:59:00,0,0,6,19.5
241,2021-06-14T04:00:00,0,0,6,19.5
242,2021-06-14T04:01:00,0,0,6,19.5
243,2021-06-14T04:02:00,0,0,6,19.5
244,2021-06-14T04:03:00,0,0,6,19.5
245,2021-06-14T04:04:00,0,0,6,19.5
246,2021-06-14T04:05:00,0,0,6,19.5
247,2021-06-14T04:06:00,0,0,6,19.5
248,2021-06-14T04:07:00,0,0,6,19.5
249,2021-06-14T04:08:00,0,0,6,19.5
250,2021-06-14T04:09:00,0,0,6,19.5
